STARLINK-32124, 60298

Orbit data source: Space-Track

STARLINK-32124, 60298 is a payload satellite owned by SpaceX/Seattle (US) in LEO that was launched on Sun, 28 Jul 2024 UTC via an FALCON 9 launch vehicle from the Air Force Eastern Test Range (AFETR). Payload-class satellites include a variety of spacecraft equipped with specific instruments for various scientific and technological missions. These include communications satellites like Starlink; space stations such as the ISS; scientific satellites like the Hubble; Earth observation satellites from companies like Planet Labs, Umbra, and HawkEye 360; GPS; miniature CubeSats for education and research; and military/defense satellites.

Loading next visibility...
Identifier
60298, 2024-132W
Orbit
LEO
Last TLE update
14 hours ago
Origin
Manufacturer
SpaceX/Seattle
Mission
Operational spacecraft
Bus & Motor
STARLINK V2M, Unknown motor
Mass
730 kg wet, ~700 kg dry
Launch date (UTC)
2024-07-28 (9 months ago)
Launch vehicle
FALCON 9
Launch site
Air Force Eastern Test Range (AFETR)
Object type
Payload
Rocket body
Debris
Shape & HBR
Unknown
Radar Cross Section
Large (>1 m²)

Expand to show TLE details & history

TLE from 14 hours ago
0 STARLINK-32124
1 60298U 24132W   25115.19112992 -.00008017  00000-0 -25868-3 0  9995
2 60298  53.1606  92.0507 0001015  96.4009 263.7107 15.30220187 42793
Epoch: 2025-04-25T04:35Z
Definitive object data (Epoch: 2025-04-25T04:35:13.625Z)
Latitude
-0.00003°
Longitude
169.79215°
Altitude
476.131 km
Speed
7.629 km/s
True Right ascension
06h 08m 12s
True Declination
0° 00' 00"
Sunlit
Object was in daylight at TLE epoch
Visualization TLE readout
Latitude
-42.76022°
Longitude
30.71114°
Altitude
490.019 km
Speed
7.619 km/s
Apparent Right ascension
17h 13m 42s
Apparent Declination
-57° 18' 52"
Sunlit
Object is in daylight
Visualization observer readout
Local Sidereal Time
01:25:16
Azimuth
224.755° SW
Elevation
-49.906°
Doppler factor
1
Orbital elements
Apogee altitude
476.107 km
Perigee altitude
474.715 km
Semi-major axis
6,853.548 km
Eccentricity
0.0001015
Inclination
53.1606°
RAAN
92.0507°
Arg. of periapsis
96.4009°
True anomaly
263.69914°
Mean anomaly
263.7107°
Eccentric anomaly
263.70492°
Mean motion
3.82534 °/min
BSTAR
-0.00025868
Orbital period
94.11 mins
Loading maneuver chart data...
Loading SW <> Apogee altitude chart data...
Loading historical data...
Loading historical data...
Loading historical data...
Loading historical data...
Loading historical data...
Loading historical data...
Loading historical data...

STARLINK-32124 Visibility forecast

Observer location: undefined°, undefined°

Span
Click to sort rows by Start time (UTC) header in descending order
Start Az.
Max El. time (UTC)
Max El. Az.
Max El.
End time (UTC)
End Az.
5 mins2025-04-26 01:09:42.428Z230.696° WSW2025-04-26 01:11:42.428Z250.063° W44.754°2025-04-26 01:14:42.428Z49.238° ENE
4 mins2025-04-26 02:48:42.428Z308.411° NW2025-04-26 02:49:42.428Z327.606° NNW16.884°2025-04-26 02:52:42.428Z22.414° NNE
4 mins2025-04-26 06:06:42.428Z347.228° N2025-04-26 06:08:42.428Z25.122° NE16.26°2025-04-26 06:10:42.428Z60.051° ENE
5 mins2025-04-26 07:44:42.428Z315.203° NNW2025-04-26 07:46:42.428Z0.217° NNE43.812°2025-04-26 07:49:42.428Z124.743° SE
|